EFW45L EGKK-LFBD

Flight info

Callsign EFW45L
Flight time 1h 8m
Altitude 33000
Route SFD Y47 BENBO UY47 DRAKE L151 SITET UN859 SOPIL DCT BALAN DCT LMG
Aircraft A321/M-SDE3FGIJ1KRWXY/SB1

Departure

Time 2026-05-05 17:23
Airport London Gatwick Airport (EGKK)

Arrival

Time 2026-05-05 18:32
Airport Bordeaux–Mérignac Airport (LFBD)
Time Latitude Longitude Altitude Speed Heading
2026-05-05 16:27 51.15593 -0.16778 208 ft 0 kts 167°
2026-05-05 16:59 51.15596 -0.16779 209 ft 3 kts 168°
2026-05-05 16:59 51.15619 -0.16786 211 ft 3 kts 173°
2026-05-05 16:59 51.15643 -0.16788 219 ft 3 kts 183°
2026-05-05 17:00 51.15666 -0.16783 216 ft 3 kts 205°
2026-05-05 17:00 51.15681 -0.16764 213 ft 2 kts 256°
2026-05-05 17:00 51.15681 -0.16761 218 ft 0 kts 258°
2026-05-05 17:04 51.15681 -0.16762 218 ft 1 kts 258°
2026-05-05 17:04 51.15679 -0.16779 212 ft 2 kts 258°
2026-05-05 17:05 51.15674 -0.16814 211 ft 4 kts 258°
2026-05-05 17:05 51.15667 -0.16868 212 ft 6 kts 258°
2026-05-05 17:05 51.15657 -0.16938 214 ft 7 kts 258°
2026-05-05 17:05 51.15646 -0.17023 213 ft 9 kts 258°
2026-05-05 17:06 51.15632 -0.17125 218 ft 10 kts 258°
2026-05-05 17:06 51.15616 -0.17242 218 ft 11 kts 257°
2026-05-05 17:06 51.15595 -0.17373 215 ft 13 kts 253°
2026-05-05 17:06 51.15529 -0.17439 212 ft 13 kts 170°
2026-05-05 17:07 51.15439 -0.17401 215 ft 14 kts 168°
2026-05-05 17:07 51.15342 -0.17369 212 ft 10 kts 170°
2026-05-05 17:07 51.15318 -0.17376 209 ft 0 kts 211°
2026-05-05 17:09 51.15318 -0.17377 209 ft 0 kts 211°
2026-05-05 17:09 51.15315 -0.17379 219 ft 0 kts 211°
2026-05-05 17:09 51.15315 -0.17380 219 ft 0 kts 211°
2026-05-05 17:09 51.15311 -0.17386 218 ft 2 kts 222°
2026-05-05 17:10 51.15304 -0.17407 217 ft 3 kts 244°
2026-05-05 17:10 51.15297 -0.17448 212 ft 5 kts 262°
2026-05-05 17:10 51.15289 -0.17528 209 ft 11 kts 258°
2026-05-05 17:10 51.15268 -0.17692 209 ft 19 kts 258°
2026-05-05 17:11 51.15235 -0.17926 208 ft 23 kts 257°
2026-05-05 17:11 51.15199 -0.18181 218 ft 24 kts 257°
2026-05-05 17:11 51.15169 -0.18443 215 ft 25 kts 258°
2026-05-05 17:11 51.15133 -0.18706 208 ft 21 kts 257°
2026-05-05 17:12 51.15103 -0.18922 212 ft 20 kts 258°
2026-05-05 17:12 51.15076 -0.19138 210 ft 20 kts 257°
2026-05-05 17:12 51.15013 -0.19263 216 ft 14 kts 185°
2026-05-05 17:12 51.14951 -0.19355 217 ft 11 kts 252°
2026-05-05 17:13 51.14946 -0.19389 216 ft 8 kts 261°
2026-05-05 17:13 51.14927 -0.19548 219 ft 20 kts 258°
2026-05-05 17:13 51.14894 -0.19784 218 ft 23 kts 257°
2026-05-05 17:13 51.14858 -0.20039 209 ft 24 kts 257°
2026-05-05 17:14 51.14822 -0.20297 215 ft 24 kts 257°
2026-05-05 17:14 51.14792 -0.20515 213 ft 17 kts 257°
2026-05-05 17:14 51.14766 -0.20703 218 ft 18 kts 257°
2026-05-05 17:14 51.14744 -0.20862 213 ft 9 kts 257°
2026-05-05 17:15 51.14730 -0.20960 210 ft 9 kts 257°
2026-05-05 17:15 51.14715 -0.21071 209 ft 11 kts 257°
2026-05-05 17:15 51.14697 -0.21198 219 ft 12 kts 258°
2026-05-05 17:15 51.14693 -0.21233 214 ft 0 kts 258°
2026-05-05 17:16 51.14692 -0.21240 213 ft 2 kts 258°
2026-05-05 17:16 51.14688 -0.21267 214 ft 3 kts 258°
2026-05-05 17:16 51.14684 -0.21294 215 ft 0 kts 258°
2026-05-05 17:17 51.14679 -0.21310 213 ft 3 kts 237°
2026-05-05 17:18 51.14654 -0.21331 215 ft 5 kts 189°
2026-05-05 17:18 51.14623 -0.21329 212 ft 0 kts 174°
2026-05-05 17:19 51.14616 -0.21327 210 ft 2 kts 171°
2026-05-05 17:19 51.14595 -0.21320 213 ft 4 kts 166°
2026-05-05 17:20 51.14563 -0.21300 211 ft 6 kts 154°
2026-05-05 17:20 51.14531 -0.21253 212 ft 7 kts 127°
2026-05-05 17:20 51.14519 -0.21171 211 ft 8 kts 86°
2026-05-05 17:20 51.14528 -0.21111 217 ft 0 kts 77°
2026-05-05 17:22 51.14567 -0.20831 212 ft 64 kts 78°
2026-05-05 17:23 51.14712 -0.19766 219 ft 131 kts 77°
2026-05-05 17:23 51.14943 -0.18073 253 ft 177 kts 78°
2026-05-05 17:23 51.15201 -0.16186 1002 ft 171 kts 78°
2026-05-05 17:23 51.15451 -0.14337 1753 ft 176 kts 76°
2026-05-05 17:24 51.15729 -0.12326 1996 ft 196 kts 76°
2026-05-05 17:24 51.16040 -0.10077 2258 ft 218 kts 76°
2026-05-05 17:24 51.16130 -0.07651 2928 ft 225 kts 104°
2026-05-05 17:24 51.15272 -0.05527 3484 ft 244 kts 142°
2026-05-05 17:25 51.13680 -0.04306 3903 ft 265 kts 163°
2026-05-05 17:25 51.12479 -0.03841 4350 ft 270 kts 168°
2026-05-05 17:25 51.09989 -0.03209 5361 ft 276 kts 172°
2026-05-05 17:25 51.08081 -0.02669 6160 ft 280 kts 168°
2026-05-05 17:26 51.06181 -0.01956 6908 ft 284 kts 165°
2026-05-05 17:26 51.04268 -0.01124 7665 ft 286 kts 163°
2026-05-05 17:26 51.02353 -0.00230 8529 ft 281 kts 163°
2026-05-05 17:26 51.00516 0.00453 9787 ft 267 kts 178°
2026-05-05 17:27 50.98715 -0.00036 10498 ft 264 kts 205°
2026-05-05 17:27 50.97074 -0.01383 11023 ft 274 kts 210°
2026-05-05 17:27 50.95329 -0.02872 11198 ft 296 kts 200°
2026-05-05 17:27 50.93236 -0.03459 11343 ft 318 kts 182°
2026-05-05 17:28 50.90976 -0.03616 11471 ft 340 kts 182°
2026-05-05 17:28 50.88552 -0.03745 11721 ft 355 kts 181°
2026-05-05 17:28 50.86062 -0.03867 12267 ft 361 kts 181°
2026-05-05 17:28 50.83539 -0.03994 12898 ft 364 kts 181°
2026-05-05 17:29 50.80997 -0.04130 13532 ft 367 kts 181°
2026-05-05 17:29 50.78433 -0.04274 14130 ft 370 kts 181°
2026-05-05 17:29 50.75851 -0.04421 14688 ft 373 kts 181°
2026-05-05 17:29 50.73248 -0.04572 15228 ft 376 kts 181°
2026-05-05 17:30 50.70619 -0.04727 15761 ft 380 kts 181°
2026-05-05 17:30 50.67968 -0.04883 16283 ft 383 kts 181°
2026-05-05 17:30 50.65293 -0.05041 16828 ft 386 kts 181°
2026-05-05 17:30 50.62596 -0.05206 17379 ft 389 kts 181°
2026-05-05 17:31 50.59922 -0.05366 17905 ft 392 kts 181°
2026-05-05 17:31 50.57186 -0.05527 18396 ft 395 kts 181°
2026-05-05 17:31 50.54433 -0.05682 18839 ft 398 kts 181°
2026-05-05 17:31 50.51659 -0.05839 19284 ft 400 kts 181°
2026-05-05 17:32 50.48869 -0.05999 19725 ft 403 kts 182°
2026-05-05 17:32 50.46057 -0.06163 20172 ft 405 kts 182°
2026-05-05 17:32 50.43230 -0.06327 20616 ft 408 kts 182°
2026-05-05 17:32 50.40381 -0.06493 21032 ft 411 kts 181°
2026-05-05 17:33 50.37511 -0.06661 21434 ft 414 kts 181°
2026-05-05 17:33 50.34621 -0.06828 21857 ft 417 kts 181°
2026-05-05 17:33 50.31765 -0.06993 22269 ft 420 kts 181°
2026-05-05 17:33 50.28837 -0.07159 22691 ft 422 kts 181°
2026-05-05 17:34 50.25892 -0.07329 23113 ft 425 kts 181°
2026-05-05 17:34 50.22932 -0.07294 23510 ft 427 kts 174°
2026-05-05 17:34 50.20000 -0.06525 23864 ft 428 kts 164°
2026-05-05 17:34 50.17185 -0.05015 24247 ft 428 kts 155°
2026-05-05 17:35 50.14468 -0.03102 24624 ft 429 kts 154°
2026-05-05 17:35 50.11750 -0.01196 25015 ft 430 kts 154°
2026-05-05 17:35 50.08945 0.00437 25435 ft 430 kts 163°
2026-05-05 17:35 50.06083 0.01564 25887 ft 430 kts 165°
2026-05-05 17:36 50.03182 0.02690 26280 ft 430 kts 165°
2026-05-05 17:36 50.00277 0.03825 26686 ft 431 kts 165°
2026-05-05 17:36 49.97324 0.04988 27053 ft 432 kts 165°
2026-05-05 17:36 49.94450 0.06124 27396 ft 434 kts 164°
2026-05-05 17:37 49.91527 0.07278 27780 ft 434 kts 165°
2026-05-05 17:37 49.89582 0.08041 28009 ft 435 kts 164°
2026-05-05 17:37 49.85662 0.09572 28557 ft 434 kts 164°
2026-05-05 17:37 49.82729 0.10720 28845 ft 437 kts 165°
2026-05-05 17:38 49.79778 0.11873 29141 ft 438 kts 164°
2026-05-05 17:38 49.76810 0.13031 29359 ft 441 kts 165°
2026-05-05 17:38 49.73823 0.14193 29647 ft 443 kts 165°
2026-05-05 17:38 49.70877 0.15336 29932 ft 443 kts 165°
2026-05-05 17:39 49.67883 0.16501 30172 ft 443 kts 165°
2026-05-05 17:39 49.64904 0.17675 30542 ft 440 kts 163°
2026-05-05 17:39 49.61945 0.18862 30904 ft 440 kts 164°
2026-05-05 17:39 49.58990 0.20062 31215 ft 439 kts 164°
2026-05-05 17:40 49.56038 0.21268 31518 ft 439 kts 164°
2026-05-05 17:40 49.53090 0.22468 31809 ft 439 kts 163°
2026-05-05 17:40 49.50132 0.23663 32154 ft 439 kts 163°
2026-05-05 17:40 49.47216 0.24834 32418 ft 440 kts 163°
2026-05-05 17:41 49.44259 0.26021 32745 ft 439 kts 163°
2026-05-05 17:41 49.41302 0.27205 32885 ft 436 kts 163°
2026-05-05 17:41 49.38399 0.28363 32894 ft 431 kts 163°
2026-05-05 17:42 49.32610 0.30656 32886 ft 428 kts 163°
2026-05-05 17:42 49.26780 0.33024 32891 ft 440 kts 162°
2026-05-05 17:43 49.20847 0.35557 32877 ft 450 kts 162°
2026-05-05 17:43 49.14789 0.38146 32881 ft 453 kts 162°
2026-05-05 17:44 49.08705 0.40705 32890 ft 454 kts 163°
2026-05-05 17:44 49.02616 0.43230 32884 ft 453 kts 163°
2026-05-05 17:45 48.96529 0.45762 32876 ft 453 kts 162°
2026-05-05 17:45 48.90485 0.48280 32891 ft 454 kts 162°
2026-05-05 17:46 48.84390 0.50822 32888 ft 454 kts 162°
2026-05-05 17:46 48.78291 0.53348 32893 ft 454 kts 162°
2026-05-05 17:47 48.72176 0.55790 32898 ft 455 kts 163°
2026-05-05 17:47 48.66042 0.58159 32905 ft 455 kts 163°
2026-05-05 17:48 48.59952 0.60510 32906 ft 455 kts 163°
2026-05-05 17:48 48.53825 0.62885 32905 ft 454 kts 163°
2026-05-05 17:49 48.47715 0.65303 32907 ft 454 kts 162°
2026-05-05 17:49 48.41622 0.67799 32903 ft 454 kts 162°
2026-05-05 17:50 48.35573 0.70292 32891 ft 454 kts 162°
2026-05-05 17:50 48.29472 0.72775 32888 ft 454 kts 162°
2026-05-05 17:51 48.23360 0.75233 32886 ft 455 kts 162°
2026-05-05 17:51 48.17233 0.77645 32882 ft 456 kts 163°
2026-05-05 17:52 48.11087 0.80041 32872 ft 457 kts 163°
2026-05-05 17:52 48.04981 0.82429 32871 ft 457 kts 163°
2026-05-05 17:53 47.98823 0.84850 32875 ft 458 kts 163°
2026-05-05 17:53 47.92659 0.87264 32871 ft 459 kts 163°
2026-05-05 17:54 47.86475 0.89657 32869 ft 459 kts 163°
2026-05-05 17:54 47.80329 0.92032 32872 ft 459 kts 163°
2026-05-05 17:55 47.74142 0.94433 32878 ft 460 kts 164°
2026-05-05 17:55 47.67944 0.96828 32876 ft 460 kts 164°
2026-05-05 17:56 47.61741 0.99214 32873 ft 461 kts 164°
2026-05-05 17:56 47.55580 1.01587 32876 ft 461 kts 164°
2026-05-05 17:57 47.49372 1.03975 32873 ft 461 kts 164°
2026-05-05 17:57 47.43126 1.06151 32871 ft 462 kts 171°
2026-05-05 17:58 47.36688 1.06298 32882 ft 463 kts 180°
2026-05-05 17:58 47.30242 1.06126 32881 ft 463 kts 179°
2026-05-05 17:59 47.23841 1.05983 32882 ft 463 kts 180°
2026-05-05 17:59 47.17409 1.05842 32887 ft 463 kts 179°
2026-05-05 18:00 47.10968 1.05694 32881 ft 463 kts 180°
2026-05-05 18:00 47.04533 1.05543 32884 ft 462 kts 179°
2026-05-05 18:01 46.98099 1.05362 32886 ft 463 kts 180°
2026-05-05 18:01 46.91704 1.05067 32892 ft 462 kts 181°
2026-05-05 18:02 46.85275 1.04753 32888 ft 462 kts 180°
2026-05-05 18:02 46.78854 1.04476 32888 ft 462 kts 180°
2026-05-05 18:03 46.72439 1.04221 32886 ft 462 kts 180°
2026-05-05 18:03 46.66063 1.03956 32887 ft 461 kts 181°
2026-05-05 18:04 46.59642 1.03679 32881 ft 461 kts 180°
2026-05-05 18:04 46.53228 1.03409 32899 ft 461 kts 181°
2026-05-05 18:05 46.46824 1.03205 32742 ft 459 kts 180°
2026-05-05 18:05 46.43651 1.03174 32857 ft 457 kts 180°
2026-05-05 18:05 46.40482 1.03165 32878 ft 450 kts 179°
2026-05-05 18:05 46.37390 1.03158 32666 ft 438 kts 179°
2026-05-05 18:06 46.34402 1.03145 32185 ft 435 kts 180°
2026-05-05 18:06 46.33375 1.03138 32016 ft 434 kts 180°
2026-05-05 18:06 46.28369 1.03094 31219 ft 433 kts 179°
2026-05-05 18:06 46.25355 1.03057 30744 ft 434 kts 179°
2026-05-05 18:07 46.22332 1.03016 30284 ft 435 kts 179°
2026-05-05 18:07 46.19297 1.02975 29795 ft 435 kts 179°
2026-05-05 18:07 46.16296 1.02937 29264 ft 431 kts 179°
2026-05-05 18:07 46.13308 1.02902 28723 ft 425 kts 180°
2026-05-05 18:08 46.10373 1.02867 28196 ft 419 kts 180°
2026-05-05 18:08 46.07518 1.02834 27686 ft 414 kts 180°
2026-05-05 18:08 46.04656 1.02802 27178 ft 410 kts 180°
2026-05-05 18:08 46.01811 1.02773 26677 ft 406 kts 180°
2026-05-05 18:09 45.99003 1.02746 26188 ft 402 kts 180°
2026-05-05 18:09 45.96216 1.02720 25706 ft 399 kts 180°
2026-05-05 18:09 45.93450 1.02695 25230 ft 395 kts 180°
2026-05-05 18:09 45.90710 1.02666 24762 ft 392 kts 180°
2026-05-05 18:10 45.88001 1.02512 24298 ft 389 kts 186°
2026-05-05 18:10 45.85361 1.01763 23844 ft 386 kts 195°
2026-05-05 18:10 45.82888 1.00417 23386 ft 384 kts 205°
2026-05-05 18:10 45.80593 0.98489 22862 ft 383 kts 214°
2026-05-05 18:11 45.78552 0.96042 22334 ft 382 kts 223°
2026-05-05 18:11 45.76825 0.93173 21822 ft 380 kts 232°
2026-05-05 18:11 45.75280 0.90120 21322 ft 377 kts 232°
2026-05-05 18:11 45.73746 0.87101 20815 ft 374 kts 232°
2026-05-05 18:12 45.72219 0.84109 20342 ft 371 kts 232°
2026-05-05 18:12 45.70702 0.81140 19859 ft 368 kts 232°
2026-05-05 18:12 45.69195 0.78188 19398 ft 366 kts 232°
2026-05-05 18:12 45.68203 0.76247 19083 ft 365 kts 232°
2026-05-05 18:13 45.66223 0.72380 18556 ft 362 kts 232°
2026-05-05 18:13 45.64739 0.69483 18144 ft 361 kts 232°
2026-05-05 18:13 45.63260 0.66599 17678 ft 358 kts 232°
2026-05-05 18:13 45.61791 0.63740 17209 ft 355 kts 232°
2026-05-05 18:14 45.60336 0.60910 16755 ft 353 kts 232°
2026-05-05 18:14 45.58887 0.58093 16315 ft 350 kts 233°
2026-05-05 18:14 45.57933 0.56242 16024 ft 349 kts 232°
2026-05-05 18:14 45.56500 0.53468 15595 ft 346 kts 233°
2026-05-05 18:15 45.55077 0.50710 15158 ft 344 kts 233°
2026-05-05 18:15 45.53207 0.47083 14602 ft 341 kts 233°
2026-05-05 18:15 45.51802 0.44365 14186 ft 339 kts 233°
2026-05-05 18:15 45.50406 0.41666 13775 ft 337 kts 233°
2026-05-05 18:16 45.49485 0.39889 13475 ft 336 kts 233°
2026-05-05 18:16 45.48104 0.37225 13015 ft 333 kts 234°
2026-05-05 18:16 45.46726 0.34573 12574 ft 331 kts 234°
2026-05-05 18:16 45.45362 0.31949 12128 ft 327 kts 234°
2026-05-05 18:17 45.44015 0.29362 11694 ft 325 kts 234°
2026-05-05 18:17 45.42670 0.26776 11263 ft 323 kts 234°
2026-05-05 18:17 45.40898 0.23371 10691 ft 322 kts 234°
2026-05-05 18:17 45.39573 0.20823 10279 ft 319 kts 234°
2026-05-05 18:18 45.38681 0.19115 9997 ft 316 kts 234°
2026-05-05 18:18 45.37400 0.16667 9772 ft 307 kts 234°
2026-05-05 18:18 45.36147 0.14275 9530 ft 296 kts 234°
2026-05-05 18:18 45.34939 0.11962 9279 ft 286 kts 234°
2026-05-05 18:19 45.33779 0.09714 9040 ft 278 kts 235°
2026-05-05 18:19 45.32650 0.07513 8808 ft 274 kts 235°
2026-05-05 18:19 45.31530 0.05321 8572 ft 273 kts 235°
2026-05-05 18:19 45.30412 0.03131 8340 ft 274 kts 235°
2026-05-05 18:20 45.29296 0.00951 8118 ft 272 kts 235°
2026-05-05 18:20 45.28185 -0.01216 7883 ft 271 kts 236°
2026-05-05 18:20 45.27094 -0.03345 7619 ft 269 kts 235°
2026-05-05 18:20 45.25991 -0.05490 7373 ft 270 kts 236°
2026-05-05 18:21 45.24890 -0.07628 7118 ft 269 kts 236°
2026-05-05 18:21 45.23786 -0.09770 6876 ft 269 kts 235°
2026-05-05 18:21 45.22686 -0.11904 6630 ft 267 kts 235°
2026-05-05 18:21 45.21591 -0.14023 6387 ft 265 kts 236°
2026-05-05 18:22 45.20504 -0.16120 6132 ft 264 kts 236°
2026-05-05 18:22 45.19416 -0.18221 5864 ft 263 kts 236°
2026-05-05 18:22 45.18333 -0.20312 5605 ft 263 kts 235°
2026-05-05 18:22 45.17265 -0.22371 5352 ft 262 kts 236°
2026-05-05 18:23 45.16070 -0.24306 5098 ft 262 kts 227°
2026-05-05 18:23 45.14794 -0.26136 4849 ft 260 kts 228°
2026-05-05 18:23 45.13527 -0.27959 4594 ft 259 kts 227°
2026-05-05 18:23 45.12264 -0.29775 4395 ft 259 kts 227°
2026-05-05 18:24 45.11003 -0.31592 4239 ft 259 kts 227°
2026-05-05 18:24 45.09747 -0.33403 4075 ft 257 kts 227°
2026-05-05 18:24 45.08485 -0.35207 3920 ft 257 kts 227°
2026-05-05 18:24 45.07219 -0.36983 3778 ft 256 kts 226°
2026-05-05 18:25 45.05964 -0.38729 3625 ft 256 kts 226°
2026-05-05 18:25 45.05108 -0.39918 3523 ft 255 kts 226°
2026-05-05 18:25 45.03453 -0.42212 3318 ft 245 kts 226°
2026-05-05 18:25 45.02265 -0.43857 3165 ft 234 kts 227°
2026-05-05 18:26 45.01131 -0.45427 3048 ft 222 kts 227°
2026-05-05 18:26 45.00048 -0.46930 2994 ft 217 kts 227°
2026-05-05 18:26 44.98973 -0.48425 2999 ft 217 kts 228°
2026-05-05 18:26 44.97912 -0.49915 3013 ft 209 kts 227°
2026-05-05 18:27 44.96945 -0.51294 3008 ft 188 kts 229°
2026-05-05 18:27 44.96095 -0.52507 3002 ft 162 kts 229°
2026-05-05 18:27 44.95341 -0.53589 3006 ft 148 kts 230°
2026-05-05 18:27 44.94640 -0.54601 3003 ft 142 kts 230°
2026-05-05 18:28 44.93272 -0.56580 2849 ft 140 kts 230°
2026-05-05 18:28 44.92597 -0.57554 2676 ft 138 kts 229°
2026-05-05 18:28 44.91914 -0.58541 2489 ft 138 kts 230°
2026-05-05 18:29 44.91255 -0.59491 2295 ft 138 kts 230°
2026-05-05 18:29 44.90586 -0.60455 2090 ft 137 kts 229°
2026-05-05 18:29 44.89922 -0.61411 1903 ft 136 kts 229°
2026-05-05 18:29 44.89268 -0.62349 1730 ft 136 kts 230°
2026-05-05 18:30 44.88606 -0.63299 1547 ft 137 kts 229°
2026-05-05 18:30 44.87937 -0.64260 1356 ft 137 kts 229°
2026-05-05 18:30 44.87272 -0.65216 1136 ft 137 kts 229°
2026-05-05 18:30 44.86605 -0.66167 966 ft 136 kts 229°
2026-05-05 18:31 44.85949 -0.67109 792 ft 134 kts 228°
2026-05-05 18:31 44.85303 -0.68053 606 ft 135 kts 229°
2026-05-05 18:31 44.84654 -0.68997 438 ft 135 kts 227°
2026-05-05 18:31 44.83993 -0.69905 258 ft 133 kts 227°
2026-05-05 18:32 44.83358 -0.70829 171 ft 122 kts 226°
2026-05-05 18:32 44.82946 -0.71424 164 ft 41 kts 226°
2026-05-05 18:32 44.82798 -0.71638 168 ft 25 kts 226°
2026-05-05 18:32 44.82675 -0.71811 170 ft 24 kts 225°
2026-05-05 18:33 44.82545 -0.71944 166 ft 14 kts 173°
2026-05-05 18:33 44.82483 -0.71834 164 ft 16 kts 120°
2026-05-05 18:33 44.82450 -0.71694 167 ft 15 kts 81°
2026-05-05 18:33 44.82509 -0.71586 168 ft 14 kts 42°
2026-05-05 18:34 44.82589 -0.71480 166 ft 17 kts 44°
2026-05-05 18:34 44.82678 -0.71357 165 ft 20 kts 44°
2026-05-05 18:34 44.82783 -0.71212 161 ft 23 kts 44°
2026-05-05 18:34 44.82895 -0.71048 163 ft 23 kts 48°
2026-05-05 18:35 44.82937 -0.70919 166 ft 13 kts 97°
2026-05-05 18:35 44.82958 -0.70801 166 ft 14 kts 34°
2026-05-05 18:35 44.83039 -0.70718 166 ft 15 kts 47°
2026-05-05 18:35 44.83116 -0.70602 166 ft 17 kts 46°
2026-05-05 18:36 44.83192 -0.70494 166 ft 6 kts 45°
2026-05-05 18:36 44.83224 -0.70448 166 ft 8 kts 45°
2026-05-05 18:36 44.83267 -0.70388 166 ft 10 kts 44°
2026-05-05 18:36 44.83320 -0.70318 166 ft 11 kts 36°
2026-05-05 18:37 44.83379 -0.70248 166 ft 9 kts 67°
2026-05-05 18:37 44.83368 -0.70207 166 ft 0 kts 127°
2026-05-05 18:37 44.83362 -0.70197 166 ft 2 kts 131°
2026-05-05 18:37 44.83357 -0.70190 166 ft 0 kts 133°